Location: Enborne
(51.3833°N, 1.3667°W)
Time: 15:00:17
(UTC+00:00)

NOSS 2-2 (C) - Pass Details

Date: 21 January 2021
Orbit: 463 x 1745 km, 63.3° (Epoch: 03 March)

Event Time Altitude Azimuth Distance (km) Brightness Sun altitude
Rises 18:57:01 0° 311° (NW) 2,799 7.6 -21.5°
Reaches altitude 10° 18:59:19 10° 325° (NW) 2,030 6.6 -21.8°
Enters shadow 19:03:05 27° 21° (NNE) 1,434 5.2 -22.4°
